Location: Olsztyn
(53.7767°N, 20.4765°E)
Time: 03:56:14
(UTC+01:00)

Altair - All Passes

Search period start: 23 January 2022 00:00
Search period end: 02 February 2022 00:00
Orbit: 1501 x 1683 km, 47.2° (Epoch: 22 January)

Date Brightness Start Highest point End Pass type
(mag) Time Alt. Az. Time Alt. Az. Time Alt. Az.
23 Jan - 01:39:42 10° SSW 01:48:42 39° SSE 01:57:48 10° E visible
23 Jan - 03:42:34 10° WSW 03:52:25 60° S 04:02:18 10° E visible
23 Jan - 05:46:45 10° W 05:56:31 55° SSW 06:06:13 10° ESE visible
23 Jan - 07:51:30 10° W 07:59:55 31° SW 08:08:12 10° SSE daylight
23 Jan - 23:16:46 10° SSE 23:21:11 14° SE 23:25:39 10° E night (unlit)
24 Jan - 01:14:45 10° SSW 01:23:36 38° SSE 01:32:34 10° E visible
24 Jan - 03:17:26 10° WSW 03:27:15 59° S 03:37:08 10° E visible
24 Jan - 05:21:33 10° W 05:31:22 56° SSW 05:41:06 10° ESE visible
24 Jan - 07:26:14 10° W 07:34:51 33° SW 07:43:20 10° SSE daylight
24 Jan - 09:35:38 10° WSW 09:36:59 10° WSW 09:38:20 10° SW daylight
24 Jan - 22:52:42 10° SE 22:56:12 12° ESE 22:59:45 10° ESE night (unlit)
25 Jan - 00:49:49 10° SSW 00:58:30 36° SE 01:07:20 10° E visible
25 Jan - 02:52:19 10° WSW 03:02:05 58° SSE 03:11:57 10° E visible
25 Jan - 04:56:22 10° W 05:06:12 57° SSW 05:15:59 10° ESE visible
25 Jan - 07:00:59 10° W 07:09:45 35° SW 07:18:26 10° SSE daylight
25 Jan - 09:08:54 10° WSW 09:12:01 12° WSW 09:15:08 10° SW daylight
25 Jan - 22:29:04 10° SE 22:31:14 11° ESE 22:33:25 10° ESE night (unlit)
26 Jan - 00:24:54 10° SSW 00:33:25 34° SE 00:42:05 10° E visible
26 Jan - 02:27:12 10° WSW 02:36:55 57° SSE 02:46:45 10° E visible
26 Jan - 04:31:11 10° W 04:41:02 58° S 04:50:52 10° ESE visible
26 Jan - 06:35:44 10° W 06:44:40 37° SW 06:53:30 10° SSE visible
26 Jan - 08:42:53 10° W 08:47:02 13° SW 08:51:10 10° SSW daylight
27 Jan - 00:00:01 10° SSW 00:08:21 32° SE 00:16:49 10° E visible
27 Jan - 02:02:06 10° WSW 02:11:46 55° SSE 02:21:33 10° E visible
27 Jan - 04:06:01 10° W 04:15:52 59° S 04:25:43 10° ESE visible
27 Jan - 06:10:30 10° W 06:19:34 39° SSW 06:28:32 10° SSE visible
27 Jan - 08:17:07 10° W 08:22:03 15° SW 08:26:57 10° SSW daylight
27 Jan - 23:35:10 10° SSW 23:43:16 30° SE 23:51:32 10° E visible
28 Jan - 01:37:00 10° SW 01:46:36 54° SSE 01:56:23 10° E visible
28 Jan - 03:40:51 10° W 03:50:41 60° S 04:00:35 10° ESE visible
28 Jan - 05:45:17 10° W 05:54:27 41° SSW 06:03:34 10° SSE visible
28 Jan - 07:51:30 10° W 07:57:03 16° SW 08:02:34 10° SSW daylight
28 Jan - 23:10:20 10° SSW 23:18:13 28° SE 23:26:15 10° E visible
29 Jan - 01:11:55 10° SW 01:21:27 53° SSE 01:31:10 10° E visible
29 Jan - 03:15:40 10° W 03:25:30 60° S 03:35:25 10° ESE visible
29 Jan - 05:20:04 10° W 05:29:21 42° SSW 05:38:34 10° SE visible
29 Jan - 07:25:59 10° W 07:32:02 18° SW 07:38:05 10° SSW daylight
29 Jan - 22:45:33 10° S 22:53:09 26° SE 23:00:56 10° E night (unlit)
30 Jan - 00:46:51 10° SW 00:56:19 51° SSE 01:05:58 10° E visible
30 Jan - 02:50:31 10° W 03:00:20 61° S 03:10:16 10° ESE visible
30 Jan - 04:54:52 10° W 05:04:13 44° SSW 05:13:33 10° SE visible
30 Jan - 07:00:30 10° W 07:07:01 20° SW 07:13:31 10° S daylight
30 Jan - 22:20:48 10° S 22:28:07 25° SE 22:35:36 10° E night (unlit)
31 Jan - 00:21:48 10° SW 00:31:10 49° SSE 00:40:46 10° E visible
31 Jan - 02:25:21 10° WSW 02:35:10 61° S 02:45:06 10° ESE visible
31 Jan - 04:29:40 10° W 04:39:05 46° SSW 04:48:31 10° SE visible
31 Jan - 06:35:05 10° W 06:42:00 21° SW 06:48:53 10° S visible
31 Jan - 21:56:05 10° S 22:03:05 23° SE 22:10:14 10° E night (unlit)
31 Jan - 23:56:47 10° SW 00:06:02 48° SSE 00:15:33 10° E visible
01 Feb - 02:00:12 10° WSW 02:09:59 61° S 02:19:55 10° ESE visible
01 Feb - 04:04:28 10° W 04:13:57 48° SSW 04:23:27 10° SE visible
01 Feb - 06:09:42 10° W 06:16:57 23° SW 06:24:12 10° S visible
01 Feb - 21:31:25 10° S 21:38:04 21° SE 21:44:51 10° E night (unlit)
01 Feb - 23:31:45 10° SW 23:40:55 46° SSE 23:50:20 10° E visible
